カタログに戻る

COSMOS 1754

運用中ナビゲーションLEO
NORAD 16764·PAYLOAD·🇷🇺 Russia

打ち上げ Jun 6, 1986 から Plesetsk Cosmodrome

Loading…

次のパス (今後24時間)

TLE

最新Source: Space-Track

元期: Sep 14, 2026, 08:28 UTC

1 16764U 86042G   26257.35340211 -.00000008  00000-0  54711-4 0  9996
2 16764  74.0154 108.3090 0020786 237.9877 295.5520 12.52612469666255

AllMySatでCOSMOS 1754をリアルタイム追跡

Download on the App Store